Regional Weather Roundup
Issued by NWS Pendleton, OR

Home | Current Version | Previous Version | Text Only | Print | Product List | Glossary On
Versions: 1 2 3 4 5 6 7 8 9 10 11 12 13 14 15 16 17 18 19 20 21 22 23 24 25 26 27 28 29 30 31 32 33 34 35 36 37 38 39 40 41 42 43 44 45 46 47 48 49 50
000
ASUS46 KPDT 301410
RWRPDT
PENDLETON REGIONAL WEATHER ROUNDUP
NATIONAL WEATHER SERVICE PENDLETON OREGON
600 AM PST FRI JAN 30 2015

NOTE: FAIR INDICATES FEW OR NO CLOUDS BELOW 12,000 FEET WITH NO
SIGNIFICANT WEATHER AND/OR OBSTRUCTIONS TO VISIBILITY.

# INDICATES UNOFFICIAL STATION AND DATA

WAZ520-301510-
EAST SLOPES OF WASHINGTON CASCADES

CITY            SKY/WX      TMP DP  RH  WIND    PRES   REMARKS
#BUMPING DAM    N/A         23  N/A N/A CALM    N/A
#CLE ELUM HS    N/A         30  27  88  CALM    30.30F
#CLE ELUM LAKE  N/A         25  24  96  CALM    30.44S
#CLIFFDEL 2NW   N/A         26  25  96  CALM    N/A
#EASTON DOT     N/A         28  27  96  N2      N/A
#GLENWOOD       N/A         33  32  96  CALM    30.43F
#MANASTASH CYN  N/A         24  20  84  CALM    30.28F
#NELSON         N/A         29  28  96  CALM    30.47S
#NELSON 3SW     N/A         25  24  96  CALM    30.67S
#NILE           N/A         29  28  96  CALM    29.68F
#PEOH POINT     N/A         32  29  89  E1      N/A
#RONALD 2NW     N/A         28  21  75  CALM    30.18F
#SNOWDEN        N/A         30  28  92  CALM    N/A
#SOUTH BLEWITT  N/A         27  26  96  CALM    N/A
#TEANAWAY 4NE   N/A         30  30  100 CALM    N/A
#TROUT LAKE 1NE N/A         33  32  96  CALM    30.43S
$$

WAZ521-301510-
SIMCOE HIGHLANDS

CITY            SKY/WX      TMP DP  RH  WIND    PRES   REMARKS
#BICKLETON HS   N/A         26  26  100 CALM    N/A
#SATUS PASS DOT N/A         28  26  92  CALM    N/A
#CENTERVILLE 4W N/A         34  32  92  SE3     30.10F
#CENTERVILLE 1SWN/A         32  30  92  E2      30.42S
#GOLDENDALE     N/A         33  32  96  CALM    N/A
#GOLDENDALE 1NE N/A         33  29  85  NE1     N/A
#GOLDENDALE 1S  N/A         31  31  100 CALM    30.33F
#GOLDENDALE 5WNWN/A         33  31  92  CALM    30.43F
#GOODNOE HILLS  N/A         35  31  85  E2      N/A
#LYLE 6NE       N/A         34  33  96  CALM    30.41S
$$

WAZ026-301510-
KITTITAS VALLEY

CITY            SKY/WX      TMP DP  RH  WIND    PRES   REMARKS
ELLENSBURG AP   CLOUDY      33  30  89  NW6     30.37F FOG
#ELLENSBURG CWU N/A         31  30  96  NW3     30.40F
#ELLENSBURG 3NE N/A         31  30  96  CALM    30.37S
#ELLENSBURG 1E  N/A         31  29  92  CALM    N/A
#KITTITAS 4N    N/A         33  30  89  CALM    28.66F
#KITTITAS 3S    N/A         32  31  96  CALM    30.43F
#THORP 6N       N/A         28  27  96  CALM    30.47S
$$

WAZ027-301510-
YAKIMA VALLEY

CITY            SKY/WX      TMP DP  RH  WIND    PRES   REMARKS
YAKIMA AIRPORT  CLOUDY      36  34  92  CALM    30.42F FOG
YAKIMA-VAGABOND CLOUDY      34  32  92  N3      30.39F FOG
#DONALD 2NE     N/A         34  33  96  CALM    29.25F
#MABTON         N/A         36  35  96  SW3     30.43F
#MOXEE 2E       N/A         35  34  96  CALM    30.38F
#NACHES 2SW     N/A         32  31  96  NW1     30.39S
#TERRACE HTS    N/A         34  33  96  CALM    30.43F
#TOPPENISH      N/A         36  34  92  CALM    30.37F
#WAPATO 4NE     N/A         34  33  96  CALM    29.25F
#WEST VALLEY    N/A         35  33  92  CALM    30.44F
#W YAKIMA       N/A         34  32  92  CALM    30.46F
#WHITE SWAN 5E  N/A         36  34  92  CALM    30.47S
#WILEY CITY 3W  N/A         33  29  85  CALM    30.43S
$$

WAZ028-301510-
LOWER COLUMBIA BASIN...WASHINGTON

CITY            SKY/WX      TMP DP  RH  WIND    PRES   REMARKS
HANFORD         CLOUDY      37  35  92  S5      30.42F
PASCO           CLOUDY      37  37  100 W3      30.45F
PROSSER AWOS    N/A         36  36  100 S5      30.46F
RICHLAND AWOS   CLOUDY      37  36  96  W3      30.46S
#BASIN CITY 5SW N/A         37  36  96  CALM    30.43S
#CONNELL 5N     N/A         34  33  96  CALM    30.45F
#CONNELL 5NW    N/A         35  33  92  E1      30.41F
#ELTOPIA 6NW    N/A         35  35  100 CALM    29.37F
#KAHLOTUS       N/A         34  33  96  CALM    30.45S
#KENNEWICK 3S   N/A         36  35  96  CALM    30.47S
#PATERSON       N/A         37  36  96  CALM    30.45S
#PROSSER DOT    N/A         36  36  100 CALM    N/A
#PROSSER        N/A         35  34  96  W2      30.46F
#SAGEMOOR 2W    N/A         36  35  96  CALM    30.31S
#TOUCHET 2S     N/A         36  35  96  CALM    30.45S
#WEST PASCO     N/A         38  36  92  CALM    30.43F
$$

WAZ029-301510-
FOOTHILLS OF THE BLUES...WASHINGTON

CITY            SKY/WX      TMP DP  RH  WIND    PRES   REMARKS
WALLA WALLA AP  CLOUDY      35  32  89  S8      30.41S
#DAYTON SCHOOL  N/A         33  28  82  W1      30.39R
#LOWDEN 2SE     N/A         36  34  92  E1      30.41S
#PLEASANT VIEW 1N/A         32  32  100 CALM    30.50S
#PRESCOTT       N/A         35  34  96  CALM    30.44S
#WHITMAN COLLEGEN/A         35  33  92  S1      30.51S
#WAITSBURG 5S   N/A         31  31  100 S3      30.57R
#WAITSBURG 8N   N/A         32  26  78  S3      30.27S
#WALLA WALLA 5E N/A         34  32  92  S7      N/A
#WALLA WALLA U  N/A         37  35  92  CALM    30.46S
#WHITMAN MISSIONN/A         37  35  92  CALM    30.47S
$$

WAZ030-301510-
BLUE MOUNTAINS...WASHINGTON

CITY            SKY/WX      TMP DP  RH  WIND    PRES   REMARKS
#DIXIE 5SE      N/A         27  26  96  CALM    30.25S
#SKI BLUEWOOD   N/A         29  26  88  CALM    30.24S
$$

ORZ009-041-WAZ024-301510-
COLUMBIA RIVER GORGE

CITY            SKY/WX      TMP DP  RH  WIND    PRES   REMARKS
HOOD RIVER AP   CLOUDY      39  34  82  E3      30.43S
THE DALLES AP   CLOUDY      39  36  89  CALM    30.44F
#ARLINGTON AIRPON/A         36  35  96  CALM    30.02S
#ARLINGTON HS   N/A         38  36  92  CALM    30.38F
#CELILO DOT     N/A         40  33  76  CALM    N/A
#LYLE           N/A         40  36  85  SE2     30.46S
#MARYHILL       N/A         36  N/A N/A CALM    N/A
#MOSIER 1S      N/A         36  31  82  CALM    30.41F
#MURDOCK        N/A         41  38  89  NE1     30.47S
#RUFUS DOT      N/A         N/A N/A N/A CALM    N/A

$$

ORZ510-301510-
NORTH CENTRAL OREGON

CITY            SKY/WX      TMP DP  RH  WIND    PRES   REMARKS
#CHENOWITH 1W   N/A         33  33  100 SE7     N/A
#COW CYN RST AREN/A         31  31  100 W2      N/A
#DUFUR 9E       N/A         30  30  100 E7      30.50F
#GRASS VALLEY 1SN/A         31  30  96  E2      30.46F
#KENT DOT       N/A         30  27  88  NE3     N/A
#MAUPIN SCHOOL  N/A         37  33  85  CALM    30.40F
#MORO SCHOOL    N/A         32  32  100 NE2     30.37F
#SHANIKO 5WSW   N/A         28  25  88  N1      N/A
#SHANIKO 4NW    N/A         28  28  100 NE1     30.29S
#TYGH VALLEY 2NEN/A         36  33  89  CALM    30.42F
#WAPANITIA AIRPON/A         33  31  92  CALM    30.45S
#WASCO DOT      N/A         36  32  85  E6      N/A
#WASCO 5NE      N/A         33  32  96  E1      30.45F
$$

ORZ511-301510-
CENTRAL OREGON

CITY            SKY/WX      TMP DP  RH  WIND    PRES   REMARKS
BEND AIRPORT    CLOUDY      32  32  100 CALM    30.31S FOG
MADRAS AIRPORT  N/A         34  34  100 N5      30.36S FOG
PRINEVILLE AP   CLOUDY      34  34  100 CALM    30.31S
REDMOND AIRPORT CLOUDY      33  32  96  N5      30.31R
#BEND 1SW       N/A         32  31  96  CALM    N/A
#BEND-AWBREY    N/A         33  33  100 CALM    30.36S
#BEND-KIM LN    N/A         34  33  96  CALM    30.26S
#CROOKED RVR RANN/A         34  33  96  NE14    30.39S WCI 25
#CULVER         N/A         33  32  96  N1      30.29S
#LAKE BILLY CHINN/A         35  33  92  E1      30.40S
#POWELL BUTTE 3EN/A         34  34  100 NW3     N/A
#POWELL BUTTE   N/A         34  31  89  N1      29.90S
#PRINEVILLE 3N  N/A         36  35  96  SW1     30.33S
#WARM SPRINGS   N/A         37  34  89  SW2     30.33S

$$


ORZ509-301510-
EAST SLOPES OF OREGON CASCADES

CITY            SKY/WX      TMP DP  RH  WIND    PRES   REMARKS
#BLUE BOX PASS  N/A         26  -21 11  SW1     N/A
#CAMP SHERMAN   N/A         35  33  92  CALM    30.42R
#LA PINE DOT    N/A         31  30  96  CALM    N/A
#LA PINE 4NW    N/A         31  28  88  CALM    30.38F
#LAVA BUTTE DOT N/A         30  29  96  SE1     N/A
#MT BACHELOR-MIDN/A         31  24  75  NE17    N/A    WCI 20
#SISTERS AIRPOR N/A         33  33  100 CALM    30.17S
#SISTERS ODOT   N/A         33  N/A N/A CALM    N/A
#SISTERS 3N     N/A         33  30  89  CALM    30.28F
#SUNRIVER       N/A         31  30  96  SW1     30.24S
#TUMALO 3W      N/A         31  30  96  CALM    30.26S
#WANOGA BUTTE D N/A         34  31  89  NE3     N/A

$$

ORZ044-301510-
LOWER COLUMBIA BASIN...OREGON

CITY            SKY/WX      TMP DP  RH  WIND    PRES   REMARKS
HERMISTON       CLOUDY      37  35  92  CALM    30.43S FOG
#BOARDMAN SCHOOLN/A         38  36  92  CALM    30.46F
#BOARDMAN 8SW   N/A         37  36  96  CALM    30.45F
#ECHO 8SW       N/A         36  36  100 CALM    30.40S
#IONE SCHOOL    N/A         36  25  64  CALM    30.39F
#IRRIGON 4NW    N/A         37  37  100 CALM    N/A
#UMATILLA SCHOOLN/A         35  35  100 CALM    30.47S
#UMATILLA       N/A         38  34  85  CALM    30.42S
$$

ORZ507-301510-
NORTHERN FOOTHILLS OF THE BLUES

CITY            SKY/WX      TMP DP  RH  WIND    PRES   REMARKS
PENDLETON AIRPT CLOUDY      33  32  96  CALM    30.39F FOG
#ADAMS 3WNW     N/A         32  31  96  CALM    30.46F
#ATHENA         N/A         32  31  96  CALM    30.48F
#HELIX SCHOOL   N/A         33  32  96  S2      30.45F
#HELIX 3N       N/A         32  31  96  W3      30.32S
#HOLDMAN 5SE    N/A         35  33  92  CALM    30.39S
#HOLDMAN 6E     N/A         33  33  100 CALM    30.26S
#M-F FERNDALE   N/A         35  32  89  CALM    30.41S
#M-F GROVE ELEM N/A         35  30  82  CALM    30.39S
#M-FREEWATER 5SEN/A         33  31  92  SW3     30.39S
#PENDLETON DNTN N/A         36  32  85  CALM    29.20S
#PDT AQUATIC CTRN/A         36  33  89  CALM    30.40S
#PENDLETON 5NE  N/A         33  32  96  CALM    30.35S
#PDT SUNRIDGE   N/A         34  33  96  CALM    30.42F
#PENDLETON 7NW  N/A         35  31  85  CALM    25.62S
#TUTUILLA       N/A         34  32  92  CALM    30.45S
#UMAPINE 2E     N/A         36  34  92  SE1     30.40S
#WESTON SCHOOL  N/A         31  29  92  W1      30.35F

$$

ORZ508-301510-
SOUTHERN FOOTHILLS OF THE BLUES

CITY            SKY/WX      TMP DP  RH  WIND    PRES   REMARKS
LEXINGTON       CLOUDY      36  34  92  E3      30.41S
#AJAX           N/A         31  26  81  N5      30.27S
#CONDON SCHOOL  N/A         29  28  96  CALM    30.27S
#CONDON 5W      N/A         27  25  92  CALM    30.28S
#HEPPNER EOC    N/A         31  30  96  CALM    30.40S
#HEPPNER 4NE    N/A         29  28  96  CALM    30.45S
#LEXINGTON 2SE  N/A         36  32  85  CALM    30.35S
#MIKKALO        N/A         34  34  100 NE2     30.37F
#OLEX 4N        N/A         35  34  96  CALM    30.40S
#RUGGS 5NE      N/A         29  23  78  CALM    30.46S
#RUGGS 2SW      N/A         29  28  96  CALM    30.47S

$$

ORZ502-503-301510-
BLUE MOUNTAINS

CITY            SKY/WX      TMP DP  RH  WIND    PRES   REMARKS
MEACHAM         MOCLDY      21  18  88  CALM    30.29S
#BATTLE MTN DOT N/A         23  22  96  CALM    N/A
#HARDMAN 10S    N/A         24  23  96  CALM    30.46S
#LADD CYN SMT   N/A         22  19  88  E2      N/A
#LADD CREEK ODOTN/A         25  24  96  S2      N/A
#LONG CREEK HS  N/A         27  27  100 CALM    30.24S
#N POWDER DOT   N/A         21  20  96  CALM    N/A
#PIKES PEAK     N/A         23  21  92  S2      27.99S
#TOLLGATE       N/A         28  26  92  CALM    30.14F
#TROY SCHOOL    N/A         27  25  92  CALM    30.29R
#UKIAH          N/A         22  21  96  CALM    30.47S
#WESTON 4E      N/A         26  25  96  SE2     30.40S
$$

ORZ505-301510-
JOHN DAY BASIN

CITY            SKY/WX      TMP DP  RH  WIND    PRES   REMARKS
JOHN DAY        CLEAR       30  29  96  CALM    30.30R
#JOHN DAY KJDY  N/A         26  23  88  CALM    30.38R
#DAYVILLE SCHOOLN/A         34  31  89  CALM    30.28S
#MITCHELL       N/A         34  34  100 CALM    30.43S
#MONUMENT HS    N/A         33  30  89  CALM    30.32S
#MT. VERNON 5SE N/A         27  25  92  CALM    30.23S
#WINLOCK        N/A         33  31  92  CALM    30.37R
$$

ORZ506-301510-
OCHOCO AND JOHN DAY HIGHLANDS

CITY            SKY/WX      TMP DP  RH  WIND    PRES   REMARKS
#BUCK CREEK DOT N/A         32  32  100 SE2     N/A
#HORSE RIDGE DO N/A         29  28  96  S2      N/A
#KEYES SMT DOT  N/A         29  28  96  NW6     N/A
#PAULINA SCHOOL N/A         50  35  56  CALM    30.23R
#PINE MTN OBS   N/A         34  30  85  CALM    N/A
#PRAIRIE CITY   N/A         18  14  84  CALM    30.58S
#SENECA         N/A         27  N/A N/A CALM    N/A
#SENECA 9NW     N/A         25  24  96  CALM    30.38S
$$

ORZ049-301510-
GRANDE RONDE VALLEY

CITY            SKY/WX      TMP DP  RH  WIND    PRES   REMARKS
LA GRANDE       CLEAR       21  12  68  CALM    30.31S
#COVE           N/A         23  18  81  CALM    30.03S
#COVE SCHOOL    N/A         25  23  92  CALM    30.27R
#COVE 6NW       N/A         20  18  92  CALM    30.47S
#ELGIN 3N       N/A         22  16  77  CALM    30.12R
#IMBLER SCHOOL  N/A         24  21  88  CALM    30.26S
#ISLAND CITY 4N N/A         35  34  96  CALM    30.29S
#LADD CYN DOT   N/A         29  25  85  SE7     N/A
#UNION 1S       N/A         22  20  92  CALM    30.33S
$$

ORZ050-301510-
WALLOWA COUNTY

CITY            SKY/WX      TMP DP  RH  WIND    PRES   REMARKS
#ENTERPRISE AP  N/A         23  19  84  CALM    30.20S
#ENTERPRISE HS  N/A         22  20  92  CALM    30.29R
#IMNAHA SCHOOL  N/A         28  26  92  S1      30.34S
#IMNAHA 10S     N/A         28  23  81  SW5     30.29S
#JOSEPH 3N      N/A         20  18  92  CALM    30.29S
#JOSEPH 3W      N/A         26  12  55  SW1     30.06S
#LOSTINE        N/A         20  18  92  CALM    30.24R
#MT HOWARD 8000 N/A         30  -4  22  CALM    30.20R
#PROMISE 1S     N/A         25  24  96  CALM    30.52R
#SHEEP RDG 7000 N/A         33   6  31  CALM    30.29S
#WALLOWA SCHOOL N/A         24  23  96  CALM    31.45S



$$



USA.gov is the U.S. government's official web portal to all federal, state and local government web resources and services.